Henderson, KY

12:37 AM CDT on August 18, 2019 (GMT -0500)
Henderson City-County

Weather History for KEHR - June, 2019

Change the Weather History Date:

Wednesday, June 5, 2019

  Actual Average Record
Temperature  
Mean Temperature 80 °F -  
Max Temperature 90 °F 81 °F 96 °F (1942)
Min Temperature 69 °F 61 °F 45 °F (1945)
Cooling Degree Days 14    
Growing Degree Days 30 (Base 50)    
Moisture  
Dew Point 68 °F    
Average Humidity 75    
Maximum Humidity 93    
Minimum Humidity 52    
Precipitation  
Precipitation 0.21 in - - ()
Sea Level Pressure  
Sea Level Pressure 29.84 in    
Wind  
Wind Speed 10 mph (SW)    
Max Wind Speed 18 mph    
Max Gust Speed 24 mph    
Visibility 10 miles    
Events Rain , Thunderstorm    
Averages and records for this station are not official NWS values.
T = Trace of Precipitation, MM = Missing Value Source: NWS Daily Summary

Daily Weather History Graph

Daily Weather History Graph

Search for Another Location

Airport or City:

Astronomy

Jun. 05, 2019 Rise Set
Actual Time 5:29 AM CDT 8:09 PM CDT
Civil Twilight 4:58 AM CDT 8:40 PM CDT
Nautical Twilight 4:19 AM CDT 9:19 PM CDT
Astronomical Twilight 3:36 AM CDT 10:02 PM CDT
Moon 7:34 AM CDT (6/5) 10:35 PM CDT (6/5)
Length of Visible Light 15h 42m
Length of Day
14h 40m
Waxing Crescent, 7% of the Moon is Illuminated
Jun 5
Waxing Crescent
Jun 10
First Quarter
Jun 17
Full
Jun 25
Last Quarter
Jul 2
New

Hourly Weather History & Observations

Time (CDT) Temp. Heat Index Dew Point Humidity Pressure Visibility Wind Dir Wind Speed Gust Speed Precip Events Conditions
12:51 AM 73.4 °F - 66.2 °F 78% 29.92 in 10.0 mi WSW 5.8 mph - N/A   Mostly Cloudy
12:56 AM 73.9 °F - 68.0 °F 82% 29.92 in 10.0 mi West 9.2 mph - N/A   Mostly Cloudy
1:20 AM 73.4 °F - 66.2 °F 78% 29.89 in 10.0 mi WSW 12.7 mph - 0.00 in Rain Light Rain
1:56 AM 71.1 °F - 66.0 °F 84% 29.88 in 10.0 mi SW 10.4 mph - 0.00 in Rain Light Rain
2:56 AM 70.0 °F - 66.9 °F 90% 29.87 in 10.0 mi SSW 8.1 mph - 0.00 in   Clear
3:56 AM 70.0 °F - 66.9 °F 90% 29.87 in 10.0 mi SSW 12.7 mph - 0.00 in Rain Light Rain
4:52 AM 69.8 °F - 66.2 °F 88% 29.87 in 10.0 mi SSW 13.8 mph - 0.00 in Thunderstorm Scattered Clouds
4:56 AM 70.0 °F - 66.9 °F 90% 29.86 in 10.0 mi SSW 11.5 mph - 0.00 in Thunderstorm Mostly Cloudy
5:43 AM 69.8 °F - 66.2 °F 88% 29.87 in 10.0 mi SW 8.1 mph - 0.01 in   Partly Cloudy
5:56 AM 69.1 °F - 66.9 °F 93% 29.87 in 10.0 mi SW 5.8 mph - 0.01 in   Partly Cloudy
6:56 AM 71.1 °F - 68.0 °F 90% 29.87 in 10.0 mi SSW 8.1 mph - N/A   Partly Cloudy
7:56 AM 73.9 °F - 70.0 °F 87% 29.87 in 10.0 mi SSW 12.7 mph - N/A   Clear
8:56 AM 77.0 °F - 71.1 °F 82% 29.86 in 10.0 mi SW 15.0 mph 20.7 mph N/A   Clear
9:56 AM 80.1 °F 83.6 °F 71.1 °F 74% 29.83 in 10.0 mi WSW 11.5 mph - N/A   Clear
10:56 AM 82.9 °F 87.5 °F 71.1 °F 67% 29.84 in 10.0 mi SW 13.8 mph 19.6 mph N/A   Clear
11:56 AM 84.0 °F 89.0 °F 71.1 °F 65% 29.83 in 10.0 mi WSW 13.8 mph - N/A   Partly Cloudy
12:56 PM 87.1 °F 93.6 °F 72.0 °F 61% 29.81 in 10.0 mi SSW 16.1 mph - N/A   Clear
1:56 PM 88.0 °F 93.8 °F 71.1 °F 57% 29.81 in 10.0 mi SW 15.0 mph 23.0 mph N/A   Partly Cloudy
2:56 PM 90.0 °F 96.4 °F 71.1 °F 54% 29.80 in 10.0 mi WSW 17.3 mph 24.2 mph N/A   Partly Cloudy
3:56 PM 90.0 °F 96.4 °F 71.1 °F 54% 29.78 in 10.0 mi SW 13.8 mph 24.2 mph N/A   Clear
4:56 PM 90.0 °F 95.4 °F 70.0 °F 52% 29.75 in 10.0 mi WSW 18.4 mph - N/A   Partly Cloudy
5:56 PM 89.1 °F 93.7 °F 69.1 °F 52% 29.74 in 10.0 mi SW 17.3 mph 23.0 mph N/A   Partly Cloudy
6:56 PM 88.0 °F 92.1 °F 69.1 °F 53% 29.75 in 10.0 mi SW 12.7 mph 20.7 mph N/A   Clear
7:56 PM 84.0 °F 89.0 °F 71.1 °F 65% 29.78 in 10.0 mi SW 3.5 mph - N/A   Clear
8:56 PM 79.0 °F - 64.0 °F 60% 29.79 in 10.0 mi NNW 4.6 mph - N/A Thunderstorm Scattered Clouds
9:07 PM 78.8 °F - 64.4 °F 61% 29.82 in 10.0 mi NNW 10.4 mph 16.1 mph N/A Thunderstorm Thunderstorm
9:56 PM 72.0 °F - 66.9 °F 84% 29.83 in 10.0 mi North 3.5 mph - 0.19 in Thunderstorm Clear
10:06 PM 71.6 °F - 66.2 °F 83% 29.84 in 10.0 mi East 8.1 mph - N/A   Clear
10:56 PM 72.0 °F - 68.0 °F 87% 29.82 in 10.0 mi SSE 5.8 mph - 0.00 in   Partly Cloudy
11:56 PM 71.1 °F - 69.1 °F 93% 29.84 in 10.0 mi Calm Calm - 0.01 in Rain Light Rain